[[{"header":{"parameterUnit":"m.s-1","parameterCategory":1,"la1":30.2991,"la2":30.254,"lo1":-89.0895,"lo2":-89.0444,"dy":0.0017,"dx":0.0017,"nx":28,"ny":28,"refTime":"2025-04-08T09:00:00:Z","depth":0,"parameterNumber":2,"parameterNumberName":"U-component_of_WINDS"},"data":[0,0,0,0,0,0,0,0,0,0,0,0,0,0,0,0,0,0,0,0,0,0,0,0,0,0,0,0,0,0,0,0,0,0,0,0,0,0,0,0,0,0,0,0,0,0,0,0,0,0,0,0,0,0,0,0,0,0,-2.1141,-2.1143,0,-2.1288,-2.1289,-2.1291,-2.1252,-2.1249,-2.1246,-2.1243,-2.1394,-2.14,-2.1407,0,0,0,0,0,0,0,0,0,0,0,0,0,-2.0827,-2.0833,-2.1141,-2.1143,-2.1145,-2.1287,-2.1289,-2.1291,-2.1252,-2.1249,-2.1245,-2.1242,-2.1392,-2.14,-2.1408,0,0,0,0,0,0,0,0,0,0,0,0,0,-2.0968,-2.0835,-2.1141,-2.1142,-2.1144,-2.1287,-2.1289,-2.1292,-2.1253,-2.1249,-2.1244,-2.124,-2.1389,-2.1399,-2.1409,-2.1559,0,0,-2.144,-2.1444,0,0,0,0,0,0,0,0,-2.096,-2.0979,-2.114,-2.1143,-2.1145,-2.1247,-2.1234,-2.1382,-2.1254,-2.1212,-2.1243,-2.1238,-2.1349,-2.1362,-2.1399,-2.1566,-2.1573,-2.1441,-2.1447,-2.1451,-2.1454,0,0,0,0,0,0,0,-2.095,-2.0973,-2.1199,-2.1143,-2.1145,-2.1136,-2.1151,-2.1262,-2.1303,-2.1215,-2.1213,-2.123,-2.1349,-2.1389,-2.1402,-2.1575,-2.144,-2.1449,-2.1456,-2.146,-2.1871,-2.1876,0,0,0,0,0,0,-2.0939,-2.0965,-2.1194,-2.1203,-2.1039,-2.1145,-2.1162,-2.1219,-2.1302,-2.131,-2.1234,-2.1228,-2.1374,-2.139,-2.1407,-2.1587,-2.1451,-2.1461,-2.1466,-2.1866,-2.1872,-2.1877,0,0,0,0,0,0,-2.0932,-2.0959,-2.1189,-2.1084,-2.1112,-2.1155,-2.1219,-2.1224,-2.1264,-2.1316,-2.1323,-2.1268,-2.1371,-2.1393,-2.1521,-2.1592,-2.1465,-2.1474,-2.1861,-2.1868,-2.1875,-2.1949,0,0,0,0,0,0,-2.0923,-2.0957,-2.1015,-2.1085,-2.1118,-2.13,-2.1223,-2.123,-2.1281,-2.1275,-2.1349,-2.1358,-2.137,-2.1506,-2.1531,-2.1604,-2.1482,-2.1854,-2.1864,-2.1873,-2.1941,-2.1958,-2.1973,0,0,0,0,0,-2.0912,-2.1031,-2.1018,-2.1046,-2.1191,-2.1305,-2.1323,-2.1334,-2.1287,-2.1346,-2.1379,-2.1355,-2.158,-2.152,-2.1548,-2.1624,-2.185,-2.1861,-2.1872,-2.1934,-2.1955,-2.1973,0,0,0,0,0,0,-2.0969,-2.104,-2.1027,-2.1172,-2.1233,-2.1298,-2.1372,-2.1357,-2.1432,-2.1423,-2.1434,-2.1451,-2.1582,-2.1616,-2.1547,-2.1773,-2.1708,-2.1725,-2.1746,-2.1767,-2.1782,-2.1771,-2.1491,0,0,0,0,0,-2.0998,-2.1085,-2.1142,-2.1265,-2.1296,-2.1329,-2.1379,-2.1382,-2.1445,-2.147,-2.1513,-2.1575,-2.1659,-2.1715,-2.1796,-2.1946,-2.196,-2.2012,-2.2028,-2.2041,-2.2056,-2.2135,-2.2158,-2.1913,-2.1913,-2.1913,0,0,-2.106,-2.111,-2.1164,-2.1277,-2.1325,-2.1413,-2.135,-2.1447,-2.1513,-2.1485,-2.1608,-2.1642,-2.1712,-2.1851,-2.1914,-2.1883,-2.2126,-2.2055,-2.2065,-2.2073,-2.2149,-2.2172,-2.2192,-2.1921,-2.1919,-2.1918,0,0,-2.1217,-2.1264,-2.137,-2.1419,-2.149,-2.1511,-2.1537,-2.1604,-2.1625,-2.1749,-2.1729,-2.1807,-2.1953,-2.2003,-2.2048,-2.2223,-2.2203,-2.2249,-2.2333,-2.2411,-2.243,-2.2447,-2.2508,-2.253,-2.2263,-2.2263,-2.2263,0,-2.1285,-2.1418,-2.1427,-2.1525,-2.1575,-2.1553,-2.166,-2.1707,-2.1802,-2.1837,-2.1801,-2.1982,-2.2028,-2.2177,-2.2219,-2.2257,-2.2285,-2.224,-2.2427,-2.2444,-2.246,-2.2518,-2.2541,-2.2268,-2.2268,-2.2267,-2.2267,0,-2.1496,-2.1589,-2.1666,-2.1757,-2.1816,-2.1918,-2.1942,-2.2001,-2.1998,-2.2023,-2.2148,-2.2202,-2.2292,-2.2329,-2.2328,-2.2478,-2.2456,-2.2424,-2.2359,-2.2488,-2.2542,-2.2565,-2.2275,-2.2273,-2.2272,-2.2271,0,0,-2.1693,-2.1787,-2.1815,-2.1855,-2.1933,-2.2004,-2.2105,-2.2193,-2.2242,-2.2308,-2.2392,-2.2515,-2.2485,-2.2536,-2.254,-2.2609,-2.2741,-2.2568,-2.2569,-2.2596,-2.2907,-2.293,-2.2955,-2.2729,-2.2733,-2.2737,-2.29,0,-2.1856,-2.2033,-2.2044,-2.2204,-2.2288,-2.2268,-2.2356,-2.2412,-2.2438,-2.2513,-2.2541,-2.2627,-2.2582,-2.2612,-2.2679,-2.2711,-2.2803,-2.2699,-2.2806,-2.281,-2.2787,-2.2984,-2.3009,-2.316,-2.2922,-2.2926,-2.2928,0,-2.2069,-2.2141,-2.2309,-2.2372,-2.2408,-2.2487,-2.2567,-2.264,-2.2703,-2.2716,-2.2772,-2.2767,-2.2869,-2.2801,-2.2942,-2.2871,-2.2915,-2.2937,-2.2943,-2.2953,-2.2876,-2.2997,-2.3209,-2.3231,-2.2962,-2.296,-2.2957,0,-2.2194,-2.2332,-2.245,-2.2486,-2.2563,-2.2618,-2.2653,-2.2712,-2.2764,-2.2834,-2.2867,-2.2949,-2.2993,-2.3057,-2.3073,-2.3022,-2.3213,-2.3147,-2.3225,-2.3225,-2.3265,-2.3262,-2.3486,-2.3297,-2.3297,-2.3296,-2.3296,0,-2.2373,-2.2477,-2.2507,-2.2579,-2.2694,-2.2705,-2.2818,-2.285,-2.2902,-2.2979,-2.2968,-2.3041,-2.3059,-2.3135,-2.3149,-2.3262,-2.3283,-2.3296,-2.3298,-2.3296,-2.3294,-2.3324,-2.3313,-2.3302,-2.3301,-2.33,-2.3299,0,-2.2531,-2.2556,-2.2683,-2.2745,-2.2764,-2.2845,-2.2898,-2.2968,-2.2991,-2.3089,-2.3113,-2.315,-2.3239,-2.3262,-2.3369,-2.3378,-2.351,-2.3503,-2.3488,-2.3488,-2.3564,-2.3556,-2.3814,-2.3847,-2.3638,-2.364,-2.3642,0,-2.2643,-2.2722,-2.2793,-2.2843,-2.288,-2.2963,-2.3015,-2.3029,-2.3084,-2.3161,-2.322,-2.3308,-2.3378,-2.3521,-2.3557,-2.3638,-2.3632,-2.3717,-2.3644,-2.3639,-2.3631,-2.3625,-2.3632,-2.373,-2.3732,-2.3734,-2.3736,0,-2.2839,-2.2847,-2.2922,-2.3002,-2.3064,-2.3128,-2.3188,-2.3231,-2.3253,-2.3315,-2.3405,-2.346,-2.3568,-2.3654,-2.3736,-2.3771,-2.3757,-2.3758,-2.378,-2.3778,-2.3765,-2.3771,-2.3524,-2.3752,-2.375,-2.3749,-2.3748,-2.3748,-2.2976,-2.3044,-2.3104,-2.3188,-2.3235,-2.3291,-2.3359,-2.339,-2.3466,-2.3554,-2.3558,-2.3656,-2.3715,-2.3823,-2.3863,-2.3939,-2.3914,-2.3946,-2.3954,-2.3961,-2.3967,-2.3755,-2.3955,-2.3954,-2.3954,-2.3953,-2.3953,0,-2.3169,-2.3206,-2.3283,-2.3368,-2.3433,-2.3414,-2.348,-2.3536,-2.3622,-2.3679,-2.3748,-2.3851,-2.3935,-2.3977,-2.4059,-2.4112,-2.4107,-2.4133,-2.4128,-2.4136,-2.3986,-2.3958,-2.4135,-2.4135,-2.4135,-2.4135,-2.4135,-2.4135,-2.3277,-2.339,-2.3405,-2.3541,-2.3578,-2.3673,-2.3712,-2.3764,-2.3809,-2.3924,-2.3993,-2.402,-2.407,-2.4156,-2.4231,-2.4241,-2.4271,-2.43,-2.4306,-2.4166,-2.4147,-2.4129,-2.4102,-2.4307,-2.4307,-2.4449,-2.4451,-2.4452]},{"header":{"parameterUnit":"m.s-1","parameterCategory":1,"la1":30.2991,"la2":30.254,"lo1":-89.0895,"lo2":-89.0444,"dy":0.0017,"dx":0.0017,"nx":28,"ny":28,"refTime":"2025-04-08T09:00:00:Z","depth":0,"parameterNumber":3,"parameterNumberName":"V-component_of_WINDS"},"data":[0,0,0,0,0,0,0,0,0,0,0,0,0,0,0,0,0,0,0,0,0,0,0,0,0,0,0,0,0,0,0,0,0,0,0,0,0,0,0,0,0,0,0,0,0,0,0,0,0,0,0,0,0,0,0,0,0,0,-3.018,-3.018,0,-3.0213,-3.0214,-3.0214,-3.0167,-3.0166,-3.0164,-3.0162,-3.0196,-3.0198,-3.0201,0,0,0,0,0,0,0,0,0,0,0,0,0,-3.0074,-3.0076,-3.018,-3.018,-3.0181,-3.0213,-3.0214,-3.0214,-3.0168,-3.0166,-3.0163,-3.0162,-3.0195,-3.0198,-3.0201,0,0,0,0,0,0,0,0,0,0,0,0,0,-3.0115,-3.0077,-3.018,-3.0161,-3.016,-3.0213,-3.0214,-3.0214,-3.0168,-3.0165,-3.0163,-3.0161,-3.0194,-3.0198,-3.0201,-3.0274,0,0,-3.0212,-3.0214,0,0,0,0,0,0,0,0,-3.0113,-3.0119,-3.0164,-3.0163,-3.0161,-3.0183,-3.0188,-3.0234,-3.0169,-3.0165,-3.0162,-3.0159,-3.0194,-3.0197,-3.0209,-3.0275,-3.0277,-3.0213,-3.0215,-3.0217,-3.0218,0,0,0,0,0,0,0,-3.011,-3.0117,-3.0193,-3.0164,-3.0163,-3.0151,-3.0154,-3.0197,-3.0193,-3.0165,-3.0162,-3.0166,-3.0193,-3.0206,-3.0209,-3.0277,-3.0213,-3.0216,-3.0218,-3.022,-3.0401,-3.0404,0,0,0,0,0,0,-3.0109,-3.0115,-3.0192,-3.0194,-3.013,-3.0155,-3.0158,-3.0179,-3.0192,-3.0192,-3.0168,-3.0164,-3.0201,-3.0205,-3.021,-3.0294,-3.0217,-3.022,-3.0222,-3.0399,-3.0402,-3.0405,0,0,0,0,0,0,-3.0107,-3.0117,-3.0191,-3.0154,-3.0162,-3.0159,-3.0183,-3.0181,-3.0194,-3.0195,-3.0194,-3.0183,-3.0199,-3.0205,-3.0258,-3.0295,-3.0222,-3.0225,-3.0396,-3.04,-3.0403,-3.0463,0,0,0,0,0,0,-3.0105,-3.0116,-3.0144,-3.0155,-3.0164,-3.0238,-3.0185,-3.0183,-3.02,-3.0195,-3.0208,-3.0207,-3.0197,-3.0252,-3.0261,-3.0298,-3.0228,-3.0392,-3.0398,-3.0402,-3.0458,-3.0469,-3.0478,0,0,0,0,0,-3.0101,-3.0161,-3.0146,-3.0156,-3.02,-3.0241,-3.0246,-3.0233,-3.0204,-3.0231,-3.0231,-3.0207,-3.0289,-3.0258,-3.0268,-3.0307,-3.039,-3.0396,-3.0402,-3.0454,-3.0467,-3.0478,0,0,0,0,0,0,-3.0155,-3.0162,-3.0146,-3.0211,-3.0225,-3.0233,-3.0267,-3.0248,-3.0271,-3.0265,-3.0248,-3.0251,-3.0307,-3.0312,-3.0277,-3.0376,-3.0335,-3.0343,-3.0371,-3.0383,-3.0393,-3.0391,-3.0231,0,0,0,0,0,-3.0175,-3.0208,-3.0212,-3.0268,-3.0276,-3.0271,-3.0288,-3.0277,-3.0291,-3.0297,-3.0301,-3.0316,-3.0345,-3.0364,-3.0391,-3.0459,-3.046,-3.049,-3.05,-3.0508,-3.0515,-3.0549,-3.0562,-3.0424,-3.0424,-3.0424,0,0,-3.0216,-3.0223,-3.0245,-3.0279,-3.0289,-3.0323,-3.0276,-3.0315,-3.0339,-3.0303,-3.0352,-3.0356,-3.0371,-3.0431,-3.0457,-3.0436,-3.0553,-3.0516,-3.0522,-3.0525,-3.0556,-3.0569,-3.0581,-3.0428,-3.0428,-3.0427,0,0,-3.0307,-3.0317,-3.0364,-3.0374,-3.039,-3.0385,-3.0397,-3.0406,-3.0407,-3.0456,-3.0429,-3.0458,-3.0508,-3.052,-3.0532,-3.0625,-3.0603,-3.0634,-3.0687,-3.072,-3.0731,-3.074,-3.0772,-3.0783,-3.0641,-3.0641,-3.0641,0,-3.0355,-3.0406,-3.0391,-3.043,-3.0445,-3.0413,-3.046,-3.0471,-3.0495,-3.0505,-3.0482,-3.0543,-3.0551,-3.0612,-3.0635,-3.0646,-3.0657,-3.0633,-3.073,-3.074,-3.0748,-3.0778,-3.079,-3.0645,-3.0645,-3.0644,-3.0644,0,-3.0464,-3.0499,-3.0535,-3.0558,-3.0577,-3.062,-3.061,-3.0631,-3.0618,-3.0615,-3.0665,-3.0673,-3.07,-3.0713,-3.0701,-3.0772,-3.0758,-3.0733,-3.0691,-3.0765,-3.0793,-3.0805,-3.065,-3.0649,-3.0648,-3.0647,0,0,-3.0592,-3.0604,-3.0617,-3.0626,-3.064,-3.0666,-3.0707,-3.0733,-3.0751,-3.0767,-3.08,-3.0843,-3.0819,-3.0833,-3.0821,-3.085,-3.0921,-3.0821,-3.0821,-3.0838,-3.0998,-3.1016,-3.103,-3.0906,-3.0909,-3.091,-3.0996,0,-3.0682,-3.0752,-3.0738,-3.0807,-3.0838,-3.0807,-3.0842,-3.0854,-3.0852,-3.0878,-3.0876,-3.0906,-3.0872,-3.088,-3.0908,-3.0907,-3.0953,-3.09,-3.0936,-3.0937,-3.0932,-3.1045,-3.1065,-3.1145,-3.1007,-3.1009,-3.101,0,-3.0796,-3.0816,-3.0888,-3.0894,-3.0907,-3.0939,-3.096,-3.0986,-3.0997,-3.0994,-3.1008,-3.0991,-3.103,-3.0987,-3.104,-3.1005,-3.1018,-3.102,-3.1023,-3.1025,-3.0978,-3.1049,-3.1171,-3.1183,-3.1027,-3.1026,-3.1025,0,-3.088,-3.0925,-3.0973,-3.0982,-3.0991,-3.1014,-3.1019,-3.1028,-3.1044,-3.1063,-3.1072,-3.1096,-3.1108,-3.1126,-3.1114,-3.1085,-3.1169,-3.1126,-3.1166,-3.1166,-3.1185,-3.1184,-3.131,-3.1195,-3.1195,-3.1195,-3.1194,0,-3.0982,-3.1027,-3.1011,-3.1041,-3.1089,-3.1072,-3.112,-3.1121,-3.113,-3.1158,-3.1133,-3.116,-3.1143,-3.1168,-3.1159,-3.1204,-3.121,-3.1207,-3.1204,-3.1209,-3.1209,-3.1218,-3.1211,-3.1198,-3.1197,-3.1197,-3.1196,0,-3.1084,-3.1076,-3.1126,-3.113,-3.1132,-3.1167,-3.117,-3.1197,-3.1192,-3.1228,-3.1236,-3.1229,-3.1257,-3.1247,-3.1278,-3.1272,-3.1328,-3.1318,-3.1324,-3.1321,-3.1361,-3.1357,-3.1496,-3.1513,-3.1389,-3.139,-3.1391,0,-3.115,-3.1183,-3.119,-3.1207,-3.1213,-3.1241,-3.1256,-3.1241,-3.1257,-3.1272,-3.1297,-3.1323,-3.1343,-3.1389,-3.1387,-3.1409,-3.1399,-3.1446,-3.1403,-3.1406,-3.1399,-3.1396,-3.1399,-3.1455,-3.1457,-3.1458,-3.1459,0,-3.1265,-3.1259,-3.1282,-3.1303,-3.1322,-3.1338,-3.1352,-3.1367,-3.1352,-3.1372,-3.14,-3.1416,-3.1446,-3.1472,-3.1492,-3.1496,-3.1475,-3.1472,-3.1483,-3.1488,-3.1489,-3.1488,-3.1347,-3.1469,-3.1468,-3.1468,-3.1467,-3.1467,-3.135,-3.1378,-3.1386,-3.1412,-3.142,-3.1433,-3.1458,-3.1456,-3.1479,-3.1503,-3.1492,-3.1524,-3.1533,-3.1557,-3.1564,-3.1589,-3.157,-3.1586,-3.1589,-3.1593,-3.1598,-3.1486,-3.1592,-3.1592,-3.1592,-3.1592,-3.1591,0,-3.1464,-3.1467,-3.1491,-3.151,-3.153,-3.1508,-3.1522,-3.154,-3.1568,-3.1578,-3.1598,-3.1629,-3.1654,-3.1652,-3.1674,-3.1694,-3.1685,-3.17,-3.1699,-3.1699,-3.1614,-3.1602,-3.1707,-3.1707,-3.1707,-3.1707,-3.1707,-3.1707,-3.1525,-3.1569,-3.1564,-3.1611,-3.1614,-3.1645,-3.1655,-3.1666,-3.1673,-3.171,-3.1729,-3.1728,-3.1733,-3.1755,-3.1775,-3.1774,-3.1783,-3.1802,-3.1798,-3.1717,-3.1706,-3.1695,-3.1684,-3.1805,-3.1805,-3.1881,-3.1882,-3.1882]}]]